Regional Weather Roundup
Issued by NWS

Home | Current Version | Previous Version | Graphics & Text | Print | Product List | Glossary On
Versions: 1 2 3 4 5 6 7 8 9 10 11 12 13 14 15 16 17 18 19 20 21 22 23 24 25 26 27 28 29 30 31 32 33 34 35 36 37 38 39 40 41 42 43 44 45 46 47 48 49 50
000
ASUS43 KMPX 242001
RWRMN
WEATHER ROUNDUP FOR MINNESOTA
NATIONAL WEATHER SERVICE TWIN CITIES/CHANHASSEN MN
300 PM CDT THU APR 24 2014


NOTE: "FAIR" INDICATES FEW OR NO CLOUDS BELOW 12,000 FEET WITH NO
SIGNIFICANT WEATHER AND/OR OBSTRUCTIONS TO VISIBILITY. N/A MEANS
CURRENT SKY AND/OR WEATHER CONDITIONS ARE NOT AVAILABLE.

MNZ060>063-068>070-242100-
   Twin Cities Metro

CITY           SKY/WX    TMP DP  RH WIND       PRES   REMARKS
TWIN CITIES    CLOUDY    42  42 100 SE3       29.70F
ST PAUL        CLOUDY    43  41  93 SE5       29.71S FOG
CRYSTAL        CLOUDY    43  40  89 CALM      29.69F FOG
BLAINE         CLOUDY    45  43  93 E5        29.70F
EDEN PRAIRIE   CLOUDY    44  41  89 CALM      29.68F
LAKEVILLE      CLOUDY    41  39  93 CALM      29.68F
SOUTH ST PAUL  CLOUDY    45  44  96 SE3       29.70S FOG
LAKE ELMO      DRIZZLE   43  41  93 E3        29.70F
$$
MNZ001>005-007-008-013>017-022>024-027-028-242100-
   Northwest Minnesota

CITY           SKY/WX    TMP DP  RH WIND       PRES   REMARKS
BEMIDJI        RAIN      34  33  96 E8        29.73S WCI  27
HALLOCK        CLOUDY    41  39  93 E6        29.71S
ROSEAU         RAIN      37  32  81 SE8       29.75F
WARROAD        MIX PCPN  37  34  87 E8        29.76F
THIEF RVR FALL CLOUDY    37  34  87 E10       29.72F
CROOKSTON      DRIZZLE   39  39 100 SE6       29.73R
FOSSTON        RAIN      36  34  93 E8        29.71F
DETROIT LAKES  DRIZZLE   36  36 100 SE7       29.70R
MOORHEAD       CLOUDY    45  45 100 SW6       29.72S FOG
PARK RAPIDS    SNOW      32  32 100 E5        29.71F VSB 1/2 WCI  27
$$
MNZ006-009>011-018-025>026-242100-
   North Central Minnesota

CITY           SKY/WX    TMP DP  RH WIND       PRES   REMARKS
BAUDETTE       LGT RAIN  38  36  92 E13       29.78S FOG
FLAG ISLAND    RAIN      37  36  93 E9        29.78F
INTL FALLS     LGT RAIN  38  35  89 E14       29.80F
WASKISH        LGT RAIN  36  36 100 E9        29.76F
BIG FORK       CLOUDY    37  36  93 E7        29.78S
LONGVILLE      MIX PCPN  34  34 100 E3        29.74F
GRAND RAPIDS   CLOUDY    34  30  86 E5        29.75F WCI  30
CRANE LAKE     RAIN      36  36 100 E3        29.84F
ORR            RAIN      36  32  87 SE9       29.77F
COOK           RAIN      36  34  93 E7G17     29.79F
$$
MNZ012-019>021-037-242100-
   Northeast Minnesota

CITY           SKY/WX    TMP DP  RH WIND       PRES   REMARKS
DULUTH         SNOW      33  31  92 E20G28    29.77F VSB 1/2 WCI  21
ELY            LGT SNOW  34  32  93 E14       29.83F WCI  24
HIBBING        LGT SNOW  34  32  92 E10       29.77F VSB 3/4 WCI  26
EVELETH        MIX PCPN  34  32  93 E10G16    29.79F WCI  26
DULUTH HARBOR  MIX PCPN  34  30  86 NE17      29.81F WCI  23
TWO HARBORS    LGT SNOW  32  27  80 E16G23    29.80F VSB 3/4 WCI  21
SILVER BAY     SNOW      30  30 100 NE12      29.84F VSB 1/2 WCI  21
GRAND MARAIS     N/A     33  31  92 NE14      29.95F WCI  23
G MARAIS ARPRT MIX PCPN  30  27  86 E13G18    29.91F VSB 1/2 WCI  20
$$
MNZ029>031-032-039>041-046>048-054>057-064-242100-
   West Central Minnesota

CITY           SKY/WX    TMP DP  RH WIND       PRES   REMARKS
FERGUS FALLS   CLOUDY    43  37  81 S6        29.70R
WHEATON        PTSUNNY   54  46  76 W6        29.74S
MORRIS         MOSUNNY   48  43  81 NW6       29.70F
ALEXANDRIA     CLOUDY    41  37  86 E3        29.72R
ELBOW LAKE     PTSUNNY   44  39  83 CALM      29.71F
WADENA         LGT SNOW  32  30  93 E8        29.69F WCI  25
GLENWOOD       CLOUDY    43  39  87 E3        29.71S
APPLETON       PTSUNNY   52  43  71 NW5       29.72S
BENSON         PTSUNNY   50  43  76 E3        29.71F
ORTONVILLE     MOSUNNY   52  43  71 W5        29.72S
MADISON        MOSUNNY   54  45  71 NW6       29.72S
WILLMAR        PTSUNNY   45  43  93 NW3       29.72R
$$
MNZ033>034-036-042>043-049>051-058-059-242100-
   Central Minnesota

CITY           SKY/WX    TMP DP  RH WIND       PRES   REMARKS
ST CLOUD       LGT RAIN  41  37  86 NE5       29.71F FOG
SAUK CENTRE    LGT RAIN  39  37  92 NE3       29.71S
PAYNESVILLE    DRIZZLE   41  38  89 CALM      29.71S
AITKIN         LGT SNOW  36  30  80 NE5       29.73F
PINE RIVER     LGT SNOW  34  34 100 E7        29.76F WCI  28
BRAINERD       LGT RAIN  40  33  76 VRB5      29.73F
STAPLES        RAIN      36  36 100 SE3       29.72F
LONG PRAIRIE   CLOUDY    37  36  93 NE6       29.70F
LITTLE FALLS   MIX PCPN  37  34  87 NE3       29.72F
LITCHFIELD     CLOUDY    43  43 100 E6        29.69F
BUFFALO        LGT RAIN  42  39  92 NE6       29.70F
MAPLE LAKE     LGT RAIN  42  41  96 E5        29.71F
$$
MNZ037-044-045-052-053-242100-
   East Central Minnesota

CITY           SKY/WX    TMP DP  RH WIND       PRES   REMARKS
PRINCETON      DRIZZLE   41  39  93 CALM      29.72S
MORA           LGT RAIN  37  34  87 E3        29.74F
CAMBRIDGE      DRIZZLE   43  37  81 CALM      29.70S
RUSH CITY      CLOUDY    40  39  95 E5        29.72F
MOOSE LAKE     LGT SNOW  32  32 100 E3        29.73F
HINCKLEY       RAIN      37  36  93 E6        29.74F
CLOQUET        LGT SNOW  34  32  93 E10G17    29.76F WCI  26
MCGREGOR       CLOUDY    34  32  93 E7        29.74F WCI  28
$$
MNZ071>073-080-081-089-090-097-098-242100-
   Southwest Minnesota

CITY           SKY/WX    TMP DP  RH WIND       PRES   REMARKS
MONTEVIDEO     PTSUNNY   54  50  87 NE8       29.72F
GRANITE FALLS  PTSUNNY   51  43  74 NW8       29.72F
CANBY          PTSUNNY   53  44  72 NW7G17    29.74S
MARSHALL       PTSUNNY   52  41  66 N15       29.71F
REDWOOD FALLS  CLOUDY    50  43  77 N8        29.70S
OLIVIA         CLOUDY    50  43  76 N6        29.69S
PIPESTONE      MOSUNNY   55  43  62 N12G22    29.72S
WINDOM         PTSUNNY   52  45  76 NW21      29.70R
WORTHINGTON    PTSUNNY   54  39  58 N17       29.74R
JACKSON        PTSUNNY   52  43  71 NW17G25   29.70R
TRACY          PTSUNNY   52  46  79 N13G18    29.72R
SLAYTON        MOSUNNY   53  43  68 N17G23    29.72S
$$
MNZ065>067-074>077-082>085-091>093-242100-
   South Central Minnesota

CITY           SKY/WX    TMP DP  RH WIND       PRES   REMARKS
MANKATO        CLOUDY    45  41  87 NW3       29.67F
NEW ULM        CLOUDY    45  45 100 W7        29.70R
ST JAMES       CLOUDY    48  45  87 W7        29.70R
FAIRMONT       CLOUDY    48  43  81 NW15      29.70S
GLENCOE        LGT RAIN  43  40  88 CALM      29.68F
FARIBAULT      CLOUDY    46  41  81 CALM      29.68S HAZE
OWATONNA       PTSUNNY   45  43  93 CALM      29.68S FOG
WASECA         CLOUDY    43  37  81 NW3       29.68F HAZE
ALBERT LEA     CLOUDY    46  45  93 W9        29.66R FOG
$$
MNZ078>079-086>088-094>096-242100-
   Southeast Minnesota

CITY           SKY/WX    TMP DP  RH WIND       PRES   REMARKS
ROCHESTER      CLOUDY    44  42  93 SE7       29.66F FOG
RED WING       DRIZZLE   43  41  93 SE7       29.68F
STANTON        CLOUDY    44  41  90 CALM      29.67S FOG
DODGE CENTER   CLOUDY    46  45  93 SE5       29.66S FOG
WINONA         DRIZZLE   43  41  93 SE6       29.69F
AUSTIN         CLOUDY    46  45  93 SW5       29.66S FOG
PRESTON        CLOUDY    45  44  97 SE3       29.66F FOG
$$
ABBREVIATIONS USED IN REMARKS
   TC - TEMPERATURES IN CELSIUS
  WCI - WIND CHILL INDEX
   HX - HEAT INDEX
  VSB - VISIBILITY
$$


USA.gov is the U.S. government's official web portal to all federal, state and local government web resources and services.